Location: Unspecified
(45.6669°N, 0.0000°E)
Time: 17:51:46
(UTC+00:00)

Tiangong 2 - Visible Passes

Search period start: 20 May 2019 00:00
Search period end: 30 May 2019 00:00
Orbit: 379 x 387 km, 42.8° (Epoch: 20 May)

Date Brightness Start Highest point End Pass type
(mag) Time Alt. Az. Time Alt. Az. Time Alt. Az.
20 May 2.0 20:57:13 10° SW 20:59:57 28° SSE 21:00:27 26° SE visible
21 May 1.5 21:33:24 10° WSW 21:36:04 42° SSW 21:36:04 42° SSW visible
22 May 1.7 20:33:34 10° SW 20:36:29 37° SSE 20:39:08 12° E visible
22 May 2.8 22:09:55 10° W 22:11:20 23° WSW 22:11:20 23° WSW visible
23 May 1.2 21:09:57 10° WSW 21:13:00 49° S 21:14:11 30° ESE visible
24 May 1.4 20:10:01 10° WSW 20:13:02 45° S 20:16:03 10° E visible
24 May 1.7 21:46:31 10° W 21:49:04 39° SW 21:49:04 39° SW visible
25 May 1.3 20:46:30 10° W 20:49:33 48° S 20:51:41 17° ESE visible
25 May 3.6 22:23:18 10° WSW 22:23:51 13° WSW 22:23:51 13° WSW visible
26 May 1.8 21:23:08 10° W 21:26:01 33° SSW 21:26:25 32° S visible
27 May 1.6 20:23:03 10° W 20:26:04 42° S 20:28:57 11° ESE visible
27 May 3.4 22:00:11 10° WSW 22:01:07 14° SW 22:01:07 14° SW visible
28 May 2.4 20:59:49 10° WSW 21:02:27 25° SSW 21:03:38 19° SSE visible
29 May 3.6 21:37:40 10° SW 21:38:20 11° SW 21:38:20 11° SW visible
